DW1159 Weather Reports


time (UTC)temp
C
wind
direction
speed
KPH
gust
KPH
rain 1hr
cm
rain 24hr
cm
rain mn
cm
humidity
%
barometer
mb
20260906225624 27 234 8.0 9.7 0.00 0.00 0.00 25 1022.1
20260906225121 27 260 11.3 12.9 0.00 0.00 0.00 25 1022.3
20260906224615 28 269 8.0 11.3 0.00 0.00 0.00 24 1021.9
20260906224112 28 213 9.7 11.3 0.00 0.00 0.00 23 1022.3
20260906223608 28 281 3.2 3.2 0.00 0.00 0.00 24 1021.9
20260906223107 28 223 9.7 12.9 0.00 0.00 0.00 24 1022.3
20260906222606 28 262 9.7 12.9 0.00 0.00 0.00 24 1022.2
20260906222104 28 262 8.0 11.3 0.00 0.00 0.00 24 1021.9
20260906221603 28 243 8.0 11.3 0.00 0.00 0.00 25 1021.9
20260906221058 28 65 4.8 4.8 0.00 0.00 0.00 24 1022.3
20260906220553 29 251 8.0 9.7 0.00 0.00 0.00 22 1021.8
20260906220048 30 306 6.4 11.3 0.00 0.00 0.00 22 1022.1
20260906215547 29 291 6.4 9.7 0.00 0.00 0.00 23 1022.4
20260906215045 28 223 4.8 8.0 0.00 0.00 0.00 22 1022.3
20260906214544 28 229 4.8 4.8 0.00 0.00 0.00 23 1022.3
20260906214039 30 280 3.2 3.2 0.00 0.00 0.00 24 1022.2
20260906213538 29 280 1.6 3.2 0.00 0.00 0.00 22 1022.6
20260906213033 28 265 3.2 3.2 0.00 0.00 0.00 22 1022.4
20260906212526 30 248 9.7 12.9 0.00 0.00 0.00 21 1022.3
20260906212022 30 243 9.7 12.9 0.00 0.00 0.00 21 1022.6
20260906211516 30 137 8.0 9.7 0.00 0.00 0.00 20 1022.9
20260906211011 30 230 4.8 4.8 0.00 0.00 0.00 21 1023.1
20260906210507 29 306 6.4 8.0 0.00 0.00 0.00 21 1023.1
20260906210006 29 219 9.7 11.3 0.00 0.00 0.00 20 1022.8
20260906205502 30 271 14.5 17.7 0.00 0.00 0.00 20 1023.1
20260906204958 30 245 8.0 11.3 0.00 0.00 0.00 20 1023.2
20260906204457 30 248 4.8 8.0 0.00 0.00 0.00 21 1023.1
20260906203957 28 255 6.4 8.0 0.00 0.00 0.00 21 1023.2
20260906203452 28 241 3.2 3.2 0.00 0.00 0.00 21 1023.2
20260906202950 29 232 11.3 12.9 0.00 0.00 0.00 22 1023.8
20260906202448 29 256 14.5 16.1 0.00 0.00 0.00 22 1023.4
20260906201943 29 275 9.7 11.3 0.00 0.00 0.00 23 1023.5
20260906201438 29 225 8.0 12.9 0.00 0.00 0.00 23 1023.4
20260906200933 30 291 6.4 9.7 0.00 0.00 0.00 23 1023.5
20260906200429 30 263 8.0 9.7 0.00 0.00 0.00 24 1023.5
20260906195929 29 223 6.4 9.7 0.00 0.00 0.00 25 1023.4
20260906195425 28 88 4.8 4.8 0.00 0.00 0.00 24 1023.7
20260906194922 28 261 4.8 4.8 0.00 0.00 0.00 25 1023.8
20260906194417 28 282 6.4 9.7 0.00 0.00 0.00 27 1023.9
20260906193912 28 269 3.2 3.2 0.00 0.00 0.00 26 1023.9
20260906193407 28 273 1.6 1.6 0.00 0.00 0.00 26 1024.3
20260906192903 28 301 4.8 4.8 0.00 0.00 0.00 26 1024.0
20260906192402 28 313 4.8 8.0 0.00 0.00 0.00 26 1024.2
20260906191856 28 294 8.0 9.7 0.00 0.00 0.00 26 1024.2
20260906191350 28 252 3.2 3.2 0.00 0.00 0.00 26 1024.4
20260906190850 28 316 4.8 4.8 0.00 0.00 0.00 26 1024.5
20260906190344 28 280 1.6 1.6 0.00 0.00 0.00 26 1024.7
20260906185839 28 252 1.6 3.2 0.00 0.00 0.00 25 1024.5
20260906185338 27 269 1.6 1.6 0.00 0.00 0.00 26 1024.5
20260906184837 27 225 0.0 0.0 0.00 0.00 0.00 26 1024.9
20260906184332 27 215 4.8 8.0 0.00 0.00 0.00 26 1025.0
20260906183828 27 246 6.4 9.7 0.00 0.00 0.00 26 1025.0
20260906183324 27 273 9.7 12.9 0.00 0.00 0.00 26 1025.0
20260906182819 27 274 1.6 1.6 0.00 0.00 0.00 26 1025.2
20260906182314 27 246 8.0 11.3 0.00 0.00 0.00 27 1025.2
20260906181809 27 246 6.4 8.0 0.00 0.00 0.00 28 1025.3
20260906181305 26 242 4.8 8.0 0.00 0.00 0.00 28 1025.5
20260906180800 26 220 6.4 8.0 0.00 0.00 0.00 29 1025.5
20260906180255 26 196 4.8 4.8 0.00 0.00 0.00 30 1025.5
20260906175752 26 271 4.8 4.8 0.00 0.00 0.00 31 1026.0
20260906175249 26 234 3.2 4.8 0.00 0.00 0.00 29 1026.0
20260906174746 26 249 4.8 4.8 0.00 0.00 0.00 31 1026.4
20260906174241 26 243 4.8 4.8 0.00 0.00 0.00 30 1026.3
20260906173736 26 280 1.6 3.2 0.00 0.00 0.00 30 1026.3
20260906173232 26 294 4.8 8.0 0.00 0.00 0.00 29 1026.0
20260906172731 26 285 4.8 8.0 0.00 0.00 0.00 32 1026.2
20260906172226 25 254 6.4 8.0 0.00 0.00 0.00 32 1026.6
20260906171721 25 276 1.6 3.2 0.00 0.00 0.00 32 1026.8
20260906171217 25 236 3.2 3.2 0.00 0.00 0.00 32 1026.9
20260906170712 25 259 0.0 0.0 0.00 0.00 0.00 34 1026.9
20260906170207 25 298 3.2 3.2 0.00 0.00 0.00 33 1027.0
20260906165703 25 275 0.0 0.0 0.00 0.00 0.00 34 1027.1
20260906165158 23 292 3.2 3.2 0.00 0.00 0.00 34 1027.0
20260906164656 23 271 0.0 0.0 0.00 0.00 0.00 34 1027.1
20260906164153 22 97 0.0 1.6 0.00 0.00 0.00 36 1027.1
20260906163648 22 325 4.8 4.8 0.00 0.00 0.00 36 1027.4
20260906163144 22 101 0.0 0.0 0.00 0.00 0.00 37 1027.1
20260906162641 22 83 1.6 1.6 0.00 0.00 0.00 38 1027.1
20260906162140 21 279 0.0 0.0 0.00 0.00 0.00 40 1027.4
20260906161636 21 288 1.6 1.6 0.00 0.00 0.00 39 1027.4
20260906161134 21 100 1.6 1.6 0.00 0.00 0.00 41 1027.8
20260906160633 20 297 3.2 3.2 0.00 0.00 0.00 42 1027.5
20260906160133 20 276 0.0 1.6 0.00 0.00 0.00 41 1027.8
20260906155630 20 105 0.0 0.0 0.00 0.00 0.00 43 1027.9
20260906155126 20 325 0.0 0.0 0.00 0.00 0.00 42 1027.5
20260906154622 20 85 3.2 3.2 0.00 0.00 0.00 44 1027.8
20260906154121 19 292 1.6 1.6 0.00 0.00 0.00 45 1027.6
20260906153620 18 35 3.2 3.2 0.00 0.00 0.00 45 1027.8
20260906153115 18 111 3.2 3.2 0.00 0.00 0.00 47 1027.9
20260906152614 19 297 1.6 1.6 0.00 0.00 0.00 43 1027.9
20260906152109 18 272 0.0 0.0 0.00 0.00 0.00 43 1027.9
20260906151604 17 299 1.6 1.6 0.00 0.00 0.00 47 1028.1
20260906151100 17 338 0.0 1.6 0.00 0.00 0.00 49 1028.0
20260906150555 16 298 1.6 1.6 0.00 0.00 0.00 53 1028.1
20260906150050 16 301 1.6 1.6 0.00 0.00 0.00 54 1028.1
20260906145549 16 82 0.0 1.6 0.00 0.00 0.00 54 1028.6
20260906145044 16 315 1.6 1.6 0.00 0.00 0.00 52 1028.3
20260906144538 15 315 0.0 1.6 0.00 0.00 0.00 55 1028.5
20260906144034 13 96 0.0 0.0 0.00 0.00 0.00 59 1028.4
20260906143528 13 103 0.0 1.6 0.00 0.00 0.00 61 1028.3
20260906143025 15 298 0.0 0.0 0.00 0.00 0.00 57 1028.4
20260906142519 15 94 0.0 0.0 0.00 0.00 0.00 56 1028.4
20260906142015 14 111 0.0 0.0 0.00 0.00 0.00 60 1028.5
20260906141514 13 94 0.0 0.0 0.00 0.00 0.00 64 1028.4
20260906141009 13 330 0.0 0.0 0.00 0.00 0.00 63 1028.5
20260906140503 13 271 0.0 0.0 0.00 0.00 0.00 63 1028.6
20260906140001 12 97 0.0 0.0 0.00 0.00 0.00 67 1028.8
20260906135459 12 290 0.0 0.0 0.00 0.00 0.00 68 1028.8
20260906134955 11 275 0.0 0.0 0.00 0.00 0.00 66 1028.8
20260906134450 11 271 1.6 4.8 0.00 0.00 0.00 69 1028.9
20260906133945 10 207 0.0 1.6 0.00 0.00 0.00 76 1028.6
20260906133441 8 275 0.0 1.6 0.00 0.00 0.00 80 1028.6
20260906132936 8 269 0.0 0.0 0.00 0.00 0.00 81 1028.6
20260906132431 7 322 0.0 1.6 0.00 0.00 0.00 81 1028.5
20260906131927 7 121 0.0 0.0 0.00 0.00 0.00 81 1028.3
20260906131422 7 264 0.0 0.0 0.00 0.00 0.00 81 1028.0
20260906130918 8 280 0.0 0.0 0.00 0.00 0.00 81 1028.1
20260906130416 8 62 0.0 0.0 0.00 0.00 0.00 79 1028.4
20260906125911 7 262 0.0 0.0 0.00 0.00 0.00 78 1028.0
20260906125408 7 260 0.0 0.0 0.00 0.00 0.00 77 1027.9
20260906124903 7 264 0.0 0.0 0.00 0.00 0.00 80 1028.1
20260906124359 7 263 0.0 0.0 0.00 0.00 0.00 79 1027.9
20260906123858 7 261 0.0 0.0 0.00 0.00 0.00 80 1027.8
20260906123353 7 262 0.0 0.0 0.00 0.00 0.00 76 1027.5
20260906122852 7 249 1.6 1.6 0.00 0.00 0.00 77 1027.8
20260906122347 8 269 0.0 0.0 0.00 0.00 0.00 80 1027.9
20260906121844 8 270 0.0 0.0 0.00 0.00 0.00 79 1027.8
20260906121340 8 269 0.0 0.0 0.00 0.00 0.00 79 1027.8
20260906120836 8 268 0.0 0.0 0.00 0.00 0.00 79 1027.8
20260906120331 8 260 0.0 1.6 0.00 0.00 0.00 80 1027.8
20260906115827 8 295 1.6 1.6 0.00 0.00 0.00 81 1027.9
20260906115323 8 272 0.0 1.6 0.00 0.00 0.00 78 1027.9
20260906114822 8 264 0.0 0.0 0.00 0.00 0.00 75 1027.6
20260906114317 8 263 0.0 0.0 0.00 0.00 0.00 77 1027.8
20260906113812 8 262 0.0 0.0 0.00 0.00 0.00 78 1027.8
20260906113311 8 326 1.6 1.6 0.00 0.00 0.00 81 1027.6
20260906112807 8 267 0.0 0.0 0.00 0.00 0.00 79 1027.8
20260906112306 8 262 0.0 0.0 0.00 0.00 0.00 75 1027.6
20260906111803 8 262 0.0 0.0 0.00 0.00 0.00 76 1027.8
20260906111301 8 256 1.6 1.6 0.00 0.00 0.00 78 1027.6
20260906110757 8 268 0.0 0.0 0.00 0.00 0.00 79 1027.8
20260906110253 8 267 0.0 0.0 0.00 0.00 0.00 80 1027.8
20260906105752 8 319 1.6 1.6 0.00 0.00 0.00 78 1027.6
20260906105248 8 263 0.0 0.0 0.00 0.00 0.00 75 1027.8
20260906104743 8 262 0.0 0.0 0.00 0.00 0.00 76 1027.9
20260906104242 8 268 0.0 1.6 0.00 0.00 0.00 76 1027.8
20260906103740 8 272 0.0 0.0 0.00 0.00 0.00 78 1027.6
20260906103234 8 271 0.0 0.0 0.00 0.00 0.00 77 1027.9
20260906102730 8 271 0.0 0.0 0.00 0.00 0.00 76 1027.8
20260906102229 8 263 0.0 0.0 0.00 0.00 0.00 75 1027.9
20260906101724 8 266 0.0 0.0 0.00 0.00 0.00 75 1027.4
20260906101219 8 290 0.0 0.0 0.00 0.00 0.00 76 1027.5
20260906100715 8 269 0.0 0.0 0.00 0.00 0.00 77 1027.6
20260906100214 8 269 0.0 0.0 0.00 0.00 0.00 79 1027.6
20260906095709 8 270 0.0 0.0 0.00 0.00 0.00 77 1027.5
20260906095204 8 274 0.0 0.0 0.00 0.00 0.00 77 1027.1
20260906094703 8 263 0.0 0.0 0.00 0.00 0.00 75 1027.5
20260906094159 8 258 0.0 1.6 0.00 0.00 0.00 74 1027.3
20260906093655 8 265 0.0 0.0 0.00 0.00 0.00 74 1027.3
20260906093150 8 287 1.6 1.6 0.00 0.00 0.00 76 1027.1
20260906092645 8 272 0.0 0.0 0.00 0.00 0.00 77 1027.3
20260906092144 8 262 0.0 0.0 0.00 0.00 0.00 75 1027.3
20260906091641 9 268 0.0 0.0 0.00 0.00 0.00 75 1027.3
20260906091137 8 256 1.6 1.6 0.00 0.00 0.00 74 1027.3
20260906090632 8 263 0.0 1.6 0.00 0.00 0.00 77 1027.1
20260906090126 8 270 0.0 0.0 0.00 0.00 0.00 79 1027.4
20260906085626 8 267 0.0 0.0 0.00 0.00 0.00 78 1027.3
20260906085120 8 268 0.0 0.0 0.00 0.00 0.00 79 1027.3
20260906084615 9 284 0.0 1.6 0.00 0.00 0.00 78 1027.1
20260906084114 9 265 0.0 0.0 0.00 0.00 0.00 71 1027.1
20260906083610 9 266 0.0 0.0 0.00 0.00 0.00 71 1027.0
20260906083109 9 259 0.0 0.0 0.00 0.00 0.00 71 1027.3
20260906082605 9 270 0.0 0.0 0.00 0.00 0.00 73 1027.1
20260906082100 10 272 0.0 0.0 0.00 0.00 0.00 73 1027.1
20260906081556 10 279 0.0 0.0 0.00 0.00 0.00 73 1027.3
20260906081051 10 269 0.0 0.0 0.00 0.00 0.00 71 1027.0
20260906080548 10 263 0.0 0.0 0.00 0.00 0.00 67 1027.1
20260906080043 10 263 0.0 0.0 0.00 0.00 0.00 68 1027.1
20260906075537 10 267 0.0 0.0 0.00 0.00 0.00 68 1027.1
20260906075032 10 284 1.6 1.6 0.00 0.00 0.00 70 1027.3
20260906074527 10 266 0.0 0.0 0.00 0.00 0.00 68 1027.1
20260906074025 10 266 0.0 0.0 0.00 0.00 0.00 70 1027.1
20260906073521 10 268 0.0 0.0 0.00 0.00 0.00 71 1027.1
20260906073017 10 278 0.0 1.6 0.00 0.00 0.00 70 1027.0
20260906072511 11 260 0.0 0.0 0.00 0.00 0.00 63 1027.0
20260906072008 11 270 0.0 0.0 0.00 0.00 0.00 68 1027.0
20260906071504 11 265 0.0 0.0 0.00 0.00 0.00 66 1027.1
20260906070959 11 264 0.0 0.0 0.00 0.00 0.00 63 1027.3
20260906070455 11 256 0.0 0.0 0.00 0.00 0.00 64 1027.1
20260906065950 11 241 1.6 3.2 0.00 0.00 0.00 63 1027.1
20260906065449 11 269 0.0 0.0 0.00 0.00 0.00 64 1027.0
20260906064945 11 273 0.0 0.0 0.00 0.00 0.00 69 1026.9
20260906064441 11 264 0.0 0.0 0.00 0.00 0.00 66 1026.9
20260906063936 11 264 0.0 0.0 0.00 0.00 0.00 63 1027.1
20260906063431 11 273 0.0 0.0 0.00 0.00 0.00 70 1027.0
20260906062926 12 265 0.0 0.0 0.00 0.00 0.00 66 1026.9
20260906062421 12 273 0.0 0.0 0.00 0.00 0.00 68 1027.1
20260906061916 12 274 0.0 0.0 0.00 0.00 0.00 66 1027.0
20260906061412 12 290 1.6 3.2 0.00 0.00 0.00 62 1027.0
20260906060906 12 262 0.0 0.0 0.00 0.00 0.00 60 1026.9
20260906060404 12 261 0.0 0.0 0.00 0.00 0.00 65 1026.6
20260906055859 12 273 0.0 0.0 0.00 0.00 0.00 66 1026.5
20260906055355 13 263 0.0 0.0 0.00 0.00 0.00 60 1026.6
20260906054850 13 254 0.0 0.0 0.00 0.00 0.00 58 1026.6
20260906054345 13 260 1.6 1.6 0.00 0.00 0.00 56 1026.8
20260906053841 13 267 0.0 0.0 0.00 0.00 0.00 57 1026.8
20260906053337 13 251 1.6 1.6 0.00 0.00 0.00 55 1026.6
20260906052832 13 258 1.6 1.6 0.00 0.00 0.00 55 1026.6
20260906052329 13 266 0.0 0.0 0.00 0.00 0.00 56 1026.5
20260906051825 13 269 0.0 0.0 0.00 0.00 0.00 60 1026.6
20260906051325 14 252 1.6 1.6 0.00 0.00 0.00 52 1026.6
20260906050821 14 241 1.6 3.2 0.00 0.00 0.00 51 1026.8
20260906050316 15 255 0.0 1.6 0.00 0.00 0.00 51 1026.4
20260906045814 15 255 0.0 0.0 0.00 0.00 0.00 52 1026.6
20260906045309 15 270 0.0 0.0 0.00 0.00 0.00 59 1026.9
20260906044805 15 256 0.0 0.0 0.00 0.00 0.00 50 1026.8
20260906044259 15 256 0.0 0.0 0.00 0.00 0.00 52 1026.5
20260906043755 15 255 0.0 0.0 0.00 0.00 0.00 53 1026.3
20260906043252 15 263 0.0 0.0 0.00 0.00 0.00 53 1026.6
20260906042751 15 263 0.0 0.0 0.00 0.00 0.00 54 1026.4
20260906042250 15 262 0.0 0.0 0.00 0.00 0.00 51 1026.5
20260906041746 15 262 0.0 0.0 0.00 0.00 0.00 51 1026.8
20260906041241 15 262 0.0 0.0 0.00 0.00 0.00 51 1026.8
20260906040736 15 269 0.0 0.0 0.00 0.00 0.00 52 1026.6
20260906040231 15 262 0.0 0.0 0.00 0.00 0.00 53 1026.5
20260906035727 15 258 1.6 1.6 0.00 0.00 0.00 53 1026.4
20260906035223 15 271 0.0 0.0 0.00 0.00 0.00 56 1026.6
20260906034722 15 258 0.0 0.0 0.00 0.00 0.00 50 1026.2
20260906034217 15 255 1.6 1.6 0.00 0.00 0.00 49 1026.5
20260906033713 15 263 0.0 0.0 0.00 0.00 0.00 51 1026.4
20260906033213 16 257 0.0 0.0 0.00 0.00 0.00 48 1026.3
20260906032710 16 257 0.0 0.0 0.00 0.00 0.00 46 1026.0
20260906032209 16 253 1.6 1.6 0.00 0.00 0.00 47 1026.3
20260906031705 16 256 1.6 1.6 0.00 0.00 0.00 47 1025.8
20260906031200 16 259 0.0 0.0 0.00 0.00 0.00 46 1026.0
20260906030659 16 230 1.6 3.2 0.00 0.00 0.00 46 1025.7
20260906030155 17 257 1.6 1.6 0.00 0.00 0.00 45 1025.8
20260906025653 17 260 0.0 1.6 0.00 0.00 0.00 44 1025.5
20260906025148 17 244 1.6 1.6 0.00 0.00 0.00 45 1025.7
20260906024642 17 267 0.0 0.0 0.00 0.00 0.00 50 1025.4
20260906024136 17 269 1.6 1.6 0.00 0.00 0.00 49 1025.2
20260906023633 17 252 1.6 1.6 0.00 0.00 0.00 43 1025.4
20260906023132 17 239 1.6 3.2 0.00 0.00 0.00 45 1025.3
20260906022627 18 275 0.0 0.0 0.00 0.00 0.00 50 1025.2
20260906022123 18 273 1.6 1.6 0.00 0.00 0.00 49 1025.0
20260906021619 18 272 1.6 1.6 0.00 0.00 0.00 47 1025.2
20260906021117 19 262 0.0 0.0 0.00 0.00 0.00 46 1025.2
20260906020617 19 288 1.6 1.6 0.00 0.00 0.00 45 1024.8
20260906020112 21 287 1.6 1.6 0.00 0.00 0.00 45 1024.8
20260906015606 21 238 3.2 3.2 0.00 0.00 0.00 34 1024.4
20260906015105 21 193 8.0 9.7 0.00 0.00 0.00 34 1024.3
20260906014600 21 207 4.8 4.8 0.00 0.00 0.00 34 1024.4
20260906014056 22 187 6.4 8.0 0.00 0.00 0.00 33 1024.4
20260906013551 22 170 8.0 11.3 0.00 0.00 0.00 32 1024.4
20260906013047 22 226 3.2 3.2 0.00 0.00 0.00 33 1024.2
20260906012542 22 259 1.6 3.2 0.00 0.00 0.00 33 1024.2
20260906012041 22 233 3.2 3.2 0.00 0.00 0.00 32 1024.2
20260906011538 23 247 1.6 1.6 0.00 0.00 0.00 32 1024.3
20260906011037 23 223 3.2 3.2 0.00 0.00 0.00 31 1024.4
20260906010533 23 256 1.6 1.6 0.00 0.00 0.00 31 1024.4
20260906010029 25 248 1.6 1.6 0.00 0.00 0.00 29 1024.3
20260906005528 25 249 1.6 1.6 0.00 0.00 0.00 28 1024.5
20260906005027 25 217 4.8 8.0 0.00 0.00 0.00 28 1024.3
20260906004526 25 237 1.6 3.2 0.00 0.00 0.00 27 1024.4
20260906004021 26 260 1.6 3.2 0.00 0.00 0.00 28 1024.3
20260906003517 26 237 4.8 4.8 0.00 0.00 0.00 27 1024.5
20260906003013 26 260 1.6 3.2 0.00 0.00 0.00 26 1024.3
20260906002507 26 256 3.2 3.2 0.00 0.00 0.00 26 1024.4
20260906002002 27 254 6.4 9.7 0.00 0.00 0.00 25 1024.2
20260906001458 27 254 1.6 1.6 0.00 0.00 0.00 25 1024.2
20260906000952 27 258 1.6 3.2 0.00 0.00 0.00 25 1024.2
20260906000448 27 222 6.4 9.7 0.00 0.00 0.00 24 1024.0
20260905235941 28 280 3.2 3.2 0.00 0.00 0.00 24 1024.0
20260905235436 27 300 4.8 4.8 0.00 0.00 0.00 25 1023.9
20260905234931 27 274 4.8 4.8 0.00 0.00 0.00 25 1024.0
20260905234427 27 265 4.8 8.0 0.00 0.00 0.00 25 1023.9
20260905233921 27 218 6.4 9.7 0.00 0.00 0.00 26 1024.0
20260905233416 27 237 3.2 3.2 0.00 0.00 0.00 25 1024.2
20260905232915 27 230 8.0 9.7 0.00 0.00 0.00 25 1023.9
20260905232412 27 258 6.4 9.7 0.00 0.00 0.00 25 1023.9
20260905231907 27 233 6.4 9.7 0.00 0.00 0.00 25 1023.9
20260905231403 27 272 8.0 9.7 0.00 0.00 0.00 25 1023.5
20260905230859 27 225 4.8 8.0 0.00 0.00 0.00 25 1023.8
20260905230356 27 253 6.4 9.7 0.00 0.00 0.00 25 1023.7